This is the latest recevied weather packets stored in our database for station/object W1SCW. If no packets are shown the sender has not sent any weather packets the latest 10 day(s).
| Time | Temp. | Humidity | Pressure | Rain* | Wind** | Luminosity | Snow |
|---|---|---|---|---|---|---|---|
| 1777837235 | 27.22° C | 36% | 1018.9 hPa | 0 mm | - | 243 W/m² | - |
| 1777836932 | 27.78° C | 35% | 1019 hPa | 0 mm | - | 843 W/m² | - |
| 1777836627 | 27.22° C | 36% | 1019 hPa | 0 mm | - | 828 W/m² | - |
| 1777836324 | 27.22° C | 36% | 1019.2 hPa | 0 mm | - | 836 W/m² | - |
| 1777836020 | 27.22° C | 36% | 1019.2 hPa | 0 mm | - | 837 W/m² | - |
| 1777835717 | 27.78° C | 36% | 1019.3 hPa | 0 mm | - | 836 W/m² | - |
| 1777835413 | 27.78° C | 36% | 1019.5 hPa | 0 mm | - | 867 W/m² | - |
| 1777835110 | 27.22° C | 36% | 1019.5 hPa | 0 mm | - | 864 W/m² | - |
| 1777834808 | 27.22° C | 36% | 1019.6 hPa | 0 mm | - | 861 W/m² | - |
| 1777834504 | 26.67° C | 37% | 1019.7 hPa | 0 mm | - | 867 W/m² | - |
| 1777834203 | 27.78° C | 40% | 1019.7 hPa | 0 mm | - | 875 W/m² | - |
| 1777833900 | 26.67° C | 37% | 1019.9 hPa | 0 mm | - | 887 W/m² | - |
| 1777833596 | 26.11° C | 39% | 1019.9 hPa | 0 mm | - | 182 W/m² | - |
| 1777833293 | 26.67° C | 37% | 1020.1 hPa | 0 mm | - | 536 W/m² | - |
| 1777832990 | 27.22° C | 39% | 1019.9 hPa | 0 mm | - | 838 W/m² | - |
| 1777832689 | 27.22° C | 39% | 1020.3 hPa | 0 mm | - | 876 W/m² | - |
| 1777832386 | 27.22° C | 40% | 1020.3 hPa | 0 mm | - | 882 W/m² | - |
| 1777832083 | 26.67° C | 41% | 1020.1 hPa | 0 mm | - | 885 W/m² | - |
| 1777831779 | 26.67° C | 41% | 1020.3 hPa | 0 mm | - | 877 W/m² | - |
| 1777831477 | 27.22° C | 41% | 1020.3 hPa | 0 mm | - | 888 W/m² | - |
| 1777831174 | 26.11° C | 41% | 1020.5 hPa | 0 mm | - | 880 W/m² | - |
| 1777830872 | 26.11° C | 38% | 1020.5 hPa | 0 mm | - | 887 W/m² | - |
| 1777830567 | 26.67° C | 42% | 1020.8 hPa | 0 mm | - | 885 W/m² | - |
| 1777830266 | 26.67° C | 40% | 1020.9 hPa | 0 mm | - | 876 W/m² | - |
| 1777829966 | 26.67° C | 39% | 1020.9 hPa | 0 mm | - | 869 W/m² | - |
* Rain latest hour (hover to see other rain measurements)
** Current wind speed in m/s (hover to see current wind gust speed)